Theta_e
282 277 274 277 279 279 277 274 273 276 280 279 278 279 282 286 290 290 292 292 294 295 298 300 302 301 306 315 320 321 321 320 321 317 314 312 312 312 312 312 311 310 307 306
278 273 279 281 280 278 276 273 273 277 279 278 277 277 281 283 284 287 289 291 293 295 296 298 301 302 304 313 316 319 321 320 320 317 316 316 314 313 312 310 308 308 306 306
275 277 281 279 277 275 275 273 273 273 277 278 276 273 277 281 283 285 287 290 292 294 294 296 297 300 302 308 313 317 320 319 319 318 317 314 315 312 309 307 306 306 306 305
277 281 279 278 276 277 273 278 277 275 273 267 276 265 274 279 280 282 285 288 290 291 294 294 295 298 303 306 309 312 315 318 317 317 314 313 312 308 310 308 307 307 306 304
275 277 277 275 277 279 275 280 277 275 272 270 270 268 271 278 277 280 283 285 289 292 293 294 295 297 301 304 306 309 312 315 315 315 314 314 312 312 312 309 306 306 305 304
279 283 281 279 281 281 281 278 277 275 272 265 269 268 269 273 277 279 283 286 288 292 293 294 296 296 297 299 302 307 310 312 313 313 313 312 312 311 310 308 305 305 304 303
275 277 281 282 275 278 276 272 266 264 263 262 273 271 271 277 280 282 282 285 288 293 293 294 294 295 297 298 300 306 309 311 311 311 312 312 312 311 311 308 307 305 303 302
267 266 276 280 276 275 274 273 267 261 261 266 274 267 272 280 282 284 284 286 289 291 291 291 291 291 292 292 293 298 304 308 310 311 311 311 311 311 312 311 310 307 305 304
268 268 277 278 279 279 275 271 276 270 270 266 268 272 278 277 276 280 281 284 283 286 286 286 286 286 285 285 287 288 290 292 301 308 310 310 310 310 310 311 310 309 307 304
271 266 275 277 278 280 277 279 267 268 264 257 264 269 266 270 272 276 278 280 281 282 282 282 283 283 284 285 286 286 286 286 287 291 303 309 309 308 309 306 306 307 305 303
274 271 269 273 268 271 272 270 272 271 267 264 263 265 273 272 273 273 276 278 280 280 280 281 282 283 283 284 284 284 285 285 286 287 291 300 303 304 303 302 300 294 291 291
275 271 265 268 275 279 276 271 271 266 264 268 270 264 275 273 274 274 274 277 279 279 280 280 282 282 282 283 283 283 284 285 285 286 287 289 296 294 292 293 291 292 292 291
274 270 264 265 271 274 270 274 272 270 270 265 267 265 275 275 273 274 274 275 277 278 278 279 280 281 282 282 282 282 283 284 285 285 287 288 288 289 289 289 289 290 291 291
280 269 268 265 267 271 269 271 271 269 267 266 266 266 269 271 271 273 274 275 275 276 276 277 278 280 281 282 282 282 282 284 284 285 286 286 286 286 286 287 287 289 289 289
277 267 268 269 270 271 270 270 270 266 267 266 266 266 268 272 271 272 274 274 273 274 274 275 276 279 279 280 281 282 282 283 284 284 284 284 285 286 286 286 286 286 287 287
274 269 269 266 268 273 272 271 270 269 267 267 269 268 272 274 273 272 272 272 271 272 273 274 275 277 278 278 279 281 281 282 283 282 281 283 284 285 285 285 285 286 286 286
273 272 265 260 268 271 268 267 268 269 269 268 265 268 272 271 271 270 271 272 271 271 272 273 274 275 277 277 280 279 281 282 281 281 281 281 281 281 282 283 284 284 285 285
275 273 269 264 267 262 270 273 272 270 269 270 270 270 271 272 272 272 272 272 271 271 272 273 274 276 277 278 279 280 280 280 279 279 279 280 280 280 280 280 281 281 282 283
275 273 268 263 261 268 272 271 270 268 267 270 269 270 271 273 276 271 272 273 273 272 273 274 275 275 276 276 278 277 276 276 277 276 277 278 278 279 279 279 279 280 281 281
272 273 270 265 262 260 266 270 275 272 265 269 268 268 269 272 266 266 271 272 273 273 274 273 274 274 274 275 277 276 275 275 275 275 275 276 277 276 277 276 277 280 280 280
262 265 264 266 265 266 270 273 275 265 264 267 269 270 271 268 268 270 270 268 268 269 272 272 271 272 272 274 275 273 273 273 274 275 275 275 276 275 277 276 276 277 278 279
264 261 264 262 263 263 272 274 268 266 265 271 273 268 270 268 268 267 268 268 267 266 267 270 271 271 270 273 273 272 271 273 272 272 271 272 273 276 276 275 274 276 277 277
266 269 267 270 267 270 269 267 267 266 265 272 272 271 272 271 269 271 270 270 271 271 270 269 268 268 269 270 271 269 271 272 272 271 270 271 272 274 275 275 275 275 275 276
273 274 270 268 272 271 270 271 271 270 273 274 274 273 272 271 270 269 270 270 270 270 269 269 268 267 267 269 270 269 270 270 269 271 271 272 272 273 273 274 275 276 275 275
273 274 272 271 275 272 274 275 275 273 272 273 273 272 270 270 269 268 270 270 269 270 269 268 266 267 267 267 267 266 268 266 267 270 271 273 273 272 273 273 273 274 274 276
274 272 271 270 276 274 275 275 275 274 273 273 273 271 271 270 269 269 269 269 268 267 268 266 265 264 264 263 263 263 263 263 262 267 270 271 272 272 272 272 272 276 276 277
Wind_Speed
14 14 15 18 20 23 24 24 24 20 24 24 23 23 23 26 24 30 25 22 21 20 23 26 16 9 9 11 14 17 15 13 10 9 9 7 10 9 8 7 10 13 11 10
11 16 21 20 22 22 23 25 23 21 19 20 21 23 22 25 21 20 20 20 27 25 20 15 22 20 13 14 16 16 18 16 14 10 9 6 9 8 9 8 9 12 14 13
12 18 21 20 22 21 22 22 23 22 22 22 21 24 21 22 21 21 21 19 22 19 14 17 10 18 17 17 17 18 19 20 17 15 9 4 8 6 6 8 9 12 16 15
12 12 14 15 17 18 22 19 22 23 19 16 11 17 17 18 23 21 20 19 17 19 14 8 7 8 11 10 9 11 13 18 16 16 12 13 11 10 8 10 9 9 13 13
16 21 23 18 14 14 14 15 17 16 14 13 19 10 15 17 22 17 20 23 20 18 20 14 9 7 9 9 9 8 9 14 14 16 14 13 13 10 6 9 11 12 12 13
18 19 12 13 14 13 17 15 14 11 8 14 18 11 17 18 22 17 19 21 23 21 22 16 9 7 7 8 8 8 9 14 16 18 18 18 17 14 9 11 11 11 10 10
20 6 9 5 9 15 6 7 3 5 7 12 10 13 20 11 21 20 21 22 19 22 21 17 13 10 7 9 9 9 11 13 15 17 19 20 20 18 17 14 12 13 11 10
9 21 6 16 14 7 16 4 3 6 4 8 9 7 5 12 15 17 7 8 18 7 7 14 16 12 11 11 12 7 3 9 12 14 16 15 15 11 12 13 12 11 12 13
8 13 23 19 10 5 6 8 13 8 17 8 6 8 4 19 20 19 16 17 17 17 16 16 14 12 13 12 12 11 10 9 4 9 12 13 12 14 13 13 12 11 12 10
5 22 7 10 12 6 6 7 9 4 6 4 4 0 8 17 16 15 15 15 12 12 15 15 13 12 12 10 9 10 10 9 9 8 5 9 11 11 11 7 8 12 10 12
16 8 12 8 4 12 5 7 6 8 5 3 4 4 8 10 10 11 11 11 10 13 13 11 9 9 7 6 6 5 6 7 9 8 8 5 7 9 9 8 6 7 6 9
8 4 9 19 23 6 3 5 6 5 6 5 4 3 5 10 9 11 10 11 9 8 9 9 9 10 9 7 6 5 5 5 6 6 6 6 4 5 7 6 6 8 10 10
3 4 9 9 4 3 5 6 10 13 7 7 4 4 10 10 12 12 12 11 10 12 11 10 9 8 7 7 6 6 6 5 6 5 4 5 3 3 4 5 6 7 9 10
4 4 6 12 15 15 13 11 13 10 3 7 7 5 11 10 14 14 15 14 12 12 10 9 8 7 7 6 7 7 7 6 6 5 5 5 5 4 3 3 5 6 7 10
3 6 6 13 16 17 9 4 10 9 10 7 3 4 10 7 11 10 8 8 9 10 11 11 11 9 8 9 8 8 8 8 7 6 6 6 5 3 3 3 3 3 5 5
4 6 6 11 7 4 4 8 4 3 9 7 9 1 10 8 7 10 12 13 14 13 12 11 11 10 9 9 9 8 9 9 8 7 7 6 5 4 3 3 3 4 4 5
7 4 4 7 3 9 4 4 3 1 3 4 5 6 9 5 8 12 14 13 12 12 11 12 11 10 9 9 8 9 8 8 9 9 8 7 6 5 4 3 3 4 5 5
5 6 2 6 9 1 3 2 3 1 3 4 3 6 8 8 7 10 11 11 12 12 12 12 10 10 10 9 8 7 8 9 9 9 9 9 6 5 5 5 4 3 2 4
5 3 4 2 3 2 3 3 3 3 2 5 6 10 9 12 7 4 13 11 9 9 9 8 9 9 10 11 9 7 8 8 10 10 9 9 8 6 5 5 4 3 4 3
2 4 3 3 2 3 4 2 3 2 2 4 4 6 8 13 4 3 11 9 10 8 9 9 7 6 9 11 9 9 10 11 11 9 8 7 7 6 6 5 5 4 4 4
4 3 4 5 3 1 4 5 1 1 4 0 3 2 6 4 1 6 7 6 4 5 9 8 6 8 10 10 8 8 8 10 8 7 6 7 7 6 6 5 4 3 4 5
3 0 2 3 3 3 1 2 2 4 2 1 1 1 2 3 3 3 4 5 5 6 5 7 7 7 7 9 8 8 9 8 6 5 5 5 6 5 4 5 4 4 4 4
3 5 3 2 5 3 2 4 3 4 3 1 1 2 2 3 4 6 6 7 6 7 7 6 6 6 5 8 7 8 8 8 7 4 5 5 5 5 5 4 4 2 4 3
4 3 2 4 3 3 5 3 4 5 4 3 3 2 3 4 5 6 5 5 5 5 6 6 7 7 7 8 8 6 7 8 7 5 5 4 4 4 4 3 3 2 2 2
5 6 5 6 8 2 5 7 8 6 4 3 4 2 4 3 4 3 2 3 4 5 5 4 5 6 7 8 8 6 8 6 7 6 4 3 2 3 2 2 2 3 2 3
6 6 6 5 4 2 3 9 8 8 7 5 5 5 4 2 2 3 3 4 5 6 6 7 7 6 6 6 7 7 6 5 4 5 5 3 3 2 2 2 1 3 3 2
Wind_Direction
297 289 269 264 256 247 257 269 281 294 289 285 276 281 273 255 245 241 244 252 261 254 244 236 224 209 190 173 175 185 177 176 156 157 156 160 168 170 174 173 162 163 160 159
301 264 271 281 289 290 286 276 276 264 271 274 278 273 274 285 286 288 277 251 231 246 245 248 215 223 186 185 184 183 184 177 176 163 175 176 172 187 177 166 159 162 164 173
292 275 294 284 276 274 272 266 267 269 277 275 282 279 272 266 267 267 268 274 268 245 243 236 222 208 195 193 196 193 182 180 181 169 169 157 161 147 157 169 175 183 179 174
274 261 288 292 281 274 274 264 268 271 274 271 279 285 280 267 259 254 259 256 259 256 267 245 253 169 164 185 191 204 199 181 179 166 169 178 181 175 187 187 182 182 181 174
282 301 294 287 269 298 286 292 263 265 262 274 256 256 264 256 258 251 239 247 250 240 245 238 232 188 185 178 187 189 196 167 170 175 176 187 193 194 167 173 169 179 181 178
268 275 273 255 276 289 276 281 271 266 268 250 250 225 257 240 241 244 247 238 238 242 228 230 232 229 178 175 161 172 170 172 174 175 185 193 197 191 180 173 175 181 182 182
315 287 296 279 304 297 270 292 257 223 214 249 244 220 237 254 238 237 233 237 243 229 222 219 209 216 162 159 169 174 183 184 186 189 188 199 201 197 194 182 183 179 181 189
343 319 355 323 307 313 306 235 279 281 253 291 313 256 270 9 336 257 283 341 15 261 68 69 53 53 60 49 43 24 212 193 193 195 202 202 206 208 202 188 187 187 188 192
316 289 314 296 341 342 339 324 303 268 247 261 237 277 126 12 20 6 8 35 17 11 38 41 41 37 37 29 19 11 2 355 312 211 208 202 201 202 205 202 187 190 187 184
304 296 291 344 318 169 290 325 327 332 297 269 271 359 341 356 356 358 11 31 11 0 21 23 22 20 29 18 5 356 352 339 326 317 275 196 195 194 202 193 197 187 182 171
293 250 292 326 299 323 352 1 331 276 230 269 307 68 355 357 359 355 5 14 12 18 25 21 15 19 31 18 3 351 354 342 331 324 312 264 182 183 187 195 186 158 137 141
277 280 284 282 279 158 94 10 321 289 317 311 282 59 16 16 0 2 4 6 20 19 25 17 12 22 22 2 356 353 6 355 336 327 311 313 211 155 171 182 165 158 161 155
297 245 303 317 4 341 21 355 325 289 220 244 286 83 358 7 5 12 6 12 18 23 23 12 17 22 16 5 357 359 4 355 343 333 335 339 354 127 160 164 156 157 156 160
322 281 269 290 286 305 299 328 358 346 3 326 19 47 4 15 9 5 6 7 13 18 17 11 15 20 15 6 8 9 7 2 351 358 21 33 19 25 63 125 153 155 159 164
271 267 266 272 273 285 278 343 14 5 342 36 32 47 351 28 15 1 3 9 17 16 12 13 11 19 14 12 11 12 14 11 2 15 30 27 15 34 76 87 100 115 144 157
296 280 318 296 257 274 255 30 352 16 356 4 351 42 355 342 23 18 13 12 14 13 11 10 13 10 14 10 8 9 13 14 15 28 23 12 25 29 43 103 128 132 131 139
256 288 318 270 313 315 141 357 342 119 45 314 3 331 327 344 39 21 7 13 12 6 7 11 9 7 11 6 359 10 11 10 21 26 25 21 14 26 37 53 92 134 152 146
295 291 225 280 317 72 124 109 311 110 65 15 319 337 327 318 126 62 24 8 6 2 360 8 5 7 5 358 1 16 26 28 26 25 21 15 21 25 26 57 66 64 88 147
193 270 285 281 270 196 128 18 348 6 58 9 341 344 340 332 172 75 20 10 6 6 354 358 360 3 2 6 1 24 29 31 33 21 17 9 9 23 29 40 54 51 85 83
236 209 221 312 265 294 222 273 191 196 214 12 348 345 345 352 43 311 352 1 359 6 358 3 360 4 13 359 1 29 28 28 25 12 10 5 10 17 27 24 11 35 60 79
300 268 221 275 295 269 224 273 171 262 250 202 282 24 1 23 23 288 316 338 343 353 1 4 0 17 7 2 11 35 26 25 7 1 4 7 11 18 15 19 3 29 56 63
219 293 280 331 253 304 237 267 152 202 262 174 7 114 16 285 291 304 338 347 6 6 360 1 358 9 4 7 14 25 19 354 350 358 7 9 7 11 14 28 18 12 60 79
279 196 219 214 245 167 184 176 186 150 163 184 352 70 4 25 26 27 26 17 16 13 2 359 4 354 1 2 14 13 355 352 340 353 3 1 7 13 12 18 26 6 41 62
257 118 220 39 302 199 179 156 163 178 205 88 71 59 38 25 39 22 30 18 15 17 10 356 357 359 358 2 2 355 350 345 336 350 355 347 10 5 12 10 8 22 53 66
238 170 213 255 268 68 210 199 171 165 156 169 125 87 79 24 67 3 34 11 2 7 15 4 360 356 343 347 344 340 348 345 345 327 322 343 357 2 360 38 3 22 40 9
194 216 197 229 224 170 159 175 154 167 176 164 167 154 113 80 77 353 13 17 14 353 355 353 346 333 318 319 318 323 329 342 335 327 335 346 336 334 336 337 37 33 34 31